STARLINK-1169 (45061 NORAD) Tracking and Keplerian Element Data

This shows tracking and keplerian element data for the satellite.

Feedback or suggestion? Click here.




ElementValue
Catalog45061
NameSTARLINK-1169
Epoch Orbit934
Epoch Day87.91667824
Epoch Year2020
RAAN320.2468
Inclination53.0025
Eccentricity0.0001996
Argument of Perigee91.8972
Mean Anonmoly221.5994
Mean Motion15.03967426
Decay Rate-0.00017012
L11 45061U 20006T 20087.91667824 -.00017012 00000-0 -12023-2 0 9997
L22 45061 53.0025 320.2468 0001996 91.8972 221.5994 15.03967426 9340

Live tracking and technical data element details for STARLINK-1169 (NORAD 45061). STARLINK-1169 can be tracked NOW for your location showing map with azimuth and elevation plus other details from your city location.

Track the satellite on the map from your city or location and see movement details for azimuth, elevation, latitude, longitude, range, height, and movement on the map or in text.







IsCatalogInMostPopularTable: catalog: 45061, numindb: 11
Update: records affected: 1



GetName: 45061 STARLINK-1169

Hit Count: updated at: Sat, 28 Mar 2020 21:20:38 GMT